Year,Month,Day,Hour,Minute,Value (Times are PST for temperature in C)
2014,06,24,00,00,14.30
2014,06,24,00,01,14.30
2014,06,24,00,02,14.30
2014,06,24,00,03,14.30
2014,06,24,00,04,14.30
2014,06,24,00,05,14.30
2014,06,24,00,06,14.30
2014,06,24,00,07,14.30
2014,06,24,00,08,14.30
2014,06,24,00,09,14.30
2014,06,24,00,10,14.30
2014,06,24,00,11,14.30
2014,06,24,00,12,14.30
2014,06,24,00,13,14.30
2014,06,24,00,14,14.30
2014,06,24,00,15,14.30
2014,06,24,00,16,14.30
2014,06,24,00,17,14.20
2014,06,24,00,18,14.20
2014,06,24,00,19,14.20
2014,06,24,00,20,14.20
2014,06,24,00,21,14.20
2014,06,24,00,22,14.20
2014,06,24,00,23,14.20
2014,06,24,00,24,14.20
2014,06,24,00,25,14.20
2014,06,24,00,26,14.20
2014,06,24,00,27,14.20
2014,06,24,00,28,14.20
2014,06,24,00,29,14.20
2014,06,24,00,30,14.20
2014,06,24,00,31,14.20
2014,06,24,00,32,14.20
2014,06,24,00,33,14.20
2014,06,24,00,34,14.20
2014,06,24,00,35,14.20
2014,06,24,00,36,14.20
2014,06,24,00,37,14.20
2014,06,24,00,38,14.20
2014,06,24,00,39,14.30
2014,06,24,00,40,14.30
2014,06,24,00,41,14.30
2014,06,24,00,42,14.30
2014,06,24,00,43,14.30
2014,06,24,00,44,14.20
2014,06,24,00,45,14.20
2014,06,24,00,46,14.20
2014,06,24,00,47,14.20
2014,06,24,00,48,14.20
2014,06,24,00,49,14.20
2014,06,24,00,50,14.20
2014,06,24,00,51,14.20
2014,06,24,00,52,14.20
2014,06,24,00,53,14.20
2014,06,24,00,54,14.20
2014,06,24,00,55,14.20
2014,06,24,00,56,14.20
2014,06,24,00,57,14.20
2014,06,24,00,58,14.20
2014,06,24,00,59,14.20
2014,06,24,01,00,14.10
2014,06,24,01,01,14.10
2014,06,24,01,02,14.10
2014,06,24,01,03,14.10
2014,06,24,01,04,14.20
2014,06,24,01,05,14.20
2014,06,24,01,06,14.20
2014,06,24,01,07,14.20
2014,06,24,01,08,14.20
2014,06,24,01,09,14.20
2014,06,24,01,10,14.20
2014,06,24,01,11,14.20
2014,06,24,01,12,14.20
2014,06,24,01,13,14.20
2014,06,24,01,14,14.20
2014,06,24,01,15,14.20
2014,06,24,01,16,14.20
2014,06,24,01,17,14.20
2014,06,24,01,18,14.20
2014,06,24,01,19,14.20
2014,06,24,01,20,14.20
2014,06,24,01,21,14.20
2014,06,24,01,22,14.20
2014,06,24,01,23,14.20
2014,06,24,01,24,14.20
2014,06,24,01,25,14.20
2014,06,24,01,26,14.20
2014,06,24,01,27,14.30
2014,06,24,01,28,14.30
2014,06,24,01,29,14.30
2014,06,24,01,30,14.30
2014,06,24,01,31,14.30
2014,06,24,01,32,14.30
2014,06,24,01,33,14.30
2014,06,24,01,34,14.30
2014,06,24,01,35,14.30
2014,06,24,01,36,14.30
2014,06,24,01,37,14.30
2014,06,24,01,38,14.30
2014,06,24,01,39,14.30
2014,06,24,01,40,14.30
2014,06,24,01,41,14.40
2014,06,24,01,42,14.30
2014,06,24,01,43,14.40
2014,06,24,01,44,14.40
2014,06,24,01,45,14.40
2014,06,24,01,46,14.40
2014,06,24,01,47,14.40
2014,06,24,01,48,14.40
2014,06,24,01,49,14.40
2014,06,24,01,50,14.40
2014,06,24,01,51,14.40
2014,06,24,01,52,14.40
2014,06,24,01,53,14.50
2014,06,24,01,54,14.50
2014,06,24,01,55,14.50
2014,06,24,01,56,14.50
2014,06,24,01,57,14.50
2014,06,24,01,58,14.60
2014,06,24,01,59,14.60
2014,06,24,02,00,14.60
2014,06,24,02,01,14.60
2014,06,24,02,02,14.60
2014,06,24,02,03,14.70
2014,06,24,02,04,14.70
2014,06,24,02,05,14.70
2014,06,24,02,06,14.70
2014,06,24,02,07,14.70
2014,06,24,02,08,14.70
2014,06,24,02,09,14.70
2014,06,24,02,10,14.70
2014,06,24,02,11,14.80
2014,06,24,02,12,14.80
2014,06,24,02,13,14.80
2014,06,24,02,14,14.80
2014,06,24,02,15,14.80
2014,06,24,02,16,14.80
2014,06,24,02,17,14.80
2014,06,24,02,18,14.80
2014,06,24,02,19,14.80
2014,06,24,02,20,14.80
2014,06,24,02,21,14.80
2014,06,24,02,22,14.80
2014,06,24,02,23,14.80
2014,06,24,02,24,14.80
2014,06,24,02,25,14.90
2014,06,24,02,26,14.90
2014,06,24,02,27,14.90
2014,06,24,02,28,14.90
2014,06,24,02,29,14.90
2014,06,24,02,30,14.90
2014,06,24,02,31,14.90
2014,06,24,02,32,14.90
2014,06,24,02,33,14.90
2014,06,24,02,34,14.90
2014,06,24,02,35,14.80
2014,06,24,02,36,14.80
2014,06,24,02,37,14.80
2014,06,24,02,38,14.80
2014,06,24,02,39,14.80
2014,06,24,02,40,14.80
2014,06,24,02,41,14.80
2014,06,24,02,42,14.80
2014,06,24,02,43,14.80
2014,06,24,02,44,14.80
2014,06,24,02,45,14.80
2014,06,24,02,46,14.80
2014,06,24,02,47,14.80
2014,06,24,02,48,14.90
2014,06,24,02,49,14.90
2014,06,24,02,50,14.90
2014,06,24,02,51,14.90
2014,06,24,02,52,14.80
2014,06,24,02,53,14.80
2014,06,24,02,54,14.80
2014,06,24,02,55,14.80
2014,06,24,02,56,14.80
2014,06,24,02,57,14.80
2014,06,24,02,58,14.80
2014,06,24,02,59,14.80
2014,06,24,03,00,14.80
2014,06,24,03,01,14.80
2014,06,24,03,02,14.80
2014,06,24,03,03,14.90
2014,06,24,03,04,14.90
2014,06,24,03,05,14.90
2014,06,24,03,06,14.90
2014,06,24,03,07,14.90
2014,06,24,03,08,14.90
2014,06,24,03,09,14.90
2014,06,24,03,10,14.90
2014,06,24,03,11,14.90
2014,06,24,03,12,14.80
2014,06,24,03,13,14.80
2014,06,24,03,14,14.80
2014,06,24,03,15,14.80
2014,06,24,03,16,14.80
2014,06,24,03,17,14.80
2014,06,24,03,18,14.80
2014,06,24,03,19,14.80
2014,06,24,03,20,14.80
2014,06,24,03,21,14.80
2014,06,24,03,22,14.80
2014,06,24,03,23,14.80
2014,06,24,03,24,14.80
2014,06,24,03,25,14.80
2014,06,24,03,26,14.80
2014,06,24,03,27,14.80
2014,06,24,03,28,14.80
2014,06,24,03,29,14.80
2014,06,24,03,30,14.70
2014,06,24,03,31,14.70
2014,06,24,03,32,14.70
2014,06,24,03,33,14.70
2014,06,24,03,34,14.70
2014,06,24,03,35,14.70
2014,06,24,03,36,14.70
2014,06,24,03,37,14.70
2014,06,24,03,38,14.70
2014,06,24,03,39,14.70
2014,06,24,03,40,14.60
2014,06,24,03,41,14.60
2014,06,24,03,42,14.60
2014,06,24,03,43,14.60
2014,06,24,03,44,14.50
2014,06,24,03,45,14.50
2014,06,24,03,46,14.40
2014,06,24,03,47,14.40
2014,06,24,03,48,14.40
2014,06,24,03,49,14.40
2014,06,24,03,50,14.30
2014,06,24,03,51,14.30
2014,06,24,03,52,14.30
2014,06,24,03,53,14.30
2014,06,24,03,54,14.30
2014,06,24,03,55,14.30
2014,06,24,03,56,14.20
2014,06,24,03,57,14.20
2014,06,24,03,58,14.20
2014,06,24,03,59,14.20
2014,06,24,04,00,14.10
2014,06,24,04,01,14.10
2014,06,24,04,02,14.10
2014,06,24,04,03,14.10
2014,06,24,04,04,14.10
2014,06,24,04,05,14.10
2014,06,24,04,06,14.10
2014,06,24,04,07,14.00
2014,06,24,04,08,14.00
2014,06,24,04,09,14.00
2014,06,24,04,10,14.00
2014,06,24,04,11,14.00
2014,06,24,04,12,14.00
2014,06,24,04,13,14.00
2014,06,24,04,14,14.00
2014,06,24,04,15,14.00
2014,06,24,04,16,14.00
2014,06,24,04,17,14.00
2014,06,24,04,18,14.00
2014,06,24,04,19,14.00
2014,06,24,04,20,14.00
2014,06,24,04,21,14.00
2014,06,24,04,22,14.00
2014,06,24,04,23,14.00
2014,06,24,04,24,14.00
2014,06,24,04,25,14.00
2014,06,24,04,26,14.00
2014,06,24,04,27,14.00
2014,06,24,04,28,14.00
2014,06,24,04,29,13.90
2014,06,24,04,30,13.90
2014,06,24,04,31,13.90
2014,06,24,04,32,13.90
2014,06,24,04,33,13.90
2014,06,24,04,34,13.90
2014,06,24,04,35,13.90
2014,06,24,04,36,13.90
2014,06,24,04,37,13.90
2014,06,24,04,38,13.90
2014,06,24,04,39,13.90
2014,06,24,04,40,13.90
2014,06,24,04,41,13.90
2014,06,24,04,42,13.90
2014,06,24,04,43,13.90
2014,06,24,04,44,13.90
2014,06,24,04,45,13.90
2014,06,24,04,46,13.90
2014,06,24,04,47,13.90
2014,06,24,04,48,13.90
2014,06,24,04,49,13.90
2014,06,24,04,50,13.90
2014,06,24,04,51,13.90
2014,06,24,04,52,13.90
2014,06,24,04,53,13.90
2014,06,24,04,54,13.90
2014,06,24,04,55,13.90
2014,06,24,04,56,13.90
2014,06,24,04,57,13.90
2014,06,24,04,58,13.90
2014,06,24,04,59,13.90
2014,06,24,05,00,13.90
2014,06,24,05,01,13.90
2014,06,24,05,02,13.90
2014,06,24,05,03,13.90
2014,06,24,05,04,13.90
2014,06,24,05,05,13.90
2014,06,24,05,06,13.90
2014,06,24,05,07,13.90
2014,06,24,05,08,13.90
2014,06,24,05,09,13.90
2014,06,24,05,10,13.90
2014,06,24,05,11,13.90
2014,06,24,05,12,13.90
2014,06,24,05,13,13.90
2014,06,24,05,14,13.90
2014,06,24,05,15,13.90
2014,06,24,05,16,13.90
2014,06,24,05,17,13.90
2014,06,24,05,18,13.90
2014,06,24,05,19,13.90
2014,06,24,05,20,13.90
2014,06,24,05,21,13.90
2014,06,24,05,22,13.80
2014,06,24,05,23,13.90
2014,06,24,05,24,13.90
2014,06,24,05,25,13.90
2014,06,24,05,26,13.90
2014,06,24,05,27,13.90
2014,06,24,05,28,13.90
2014,06,24,05,29,13.90
2014,06,24,05,30,13.90
2014,06,24,05,31,13.90
2014,06,24,05,32,13.90
2014,06,24,05,33,13.90
2014,06,24,05,34,13.90
2014,06,24,05,35,13.90
2014,06,24,05,36,13.90
2014,06,24,05,37,13.90
2014,06,24,05,38,13.90
2014,06,24,05,39,13.90
2014,06,24,05,40,13.90
2014,06,24,05,41,13.90
2014,06,24,05,42,13.90
2014,06,24,05,43,13.90
2014,06,24,05,44,13.90
2014,06,24,05,45,13.90
2014,06,24,05,46,13.90
2014,06,24,05,47,13.90
2014,06,24,05,48,13.90
2014,06,24,05,49,13.90
2014,06,24,05,50,13.90
2014,06,24,05,51,13.90
2014,06,24,05,52,13.90
2014,06,24,05,53,13.90
2014,06,24,05,54,13.90
2014,06,24,05,55,13.90
2014,06,24,05,56,13.90
2014,06,24,05,57,13.90
2014,06,24,05,58,13.90
2014,06,24,05,59,13.90
2014,06,24,06,00,13.90
2014,06,24,06,01,14.00
2014,06,24,06,02,14.00
2014,06,24,06,03,14.00
2014,06,24,06,04,14.00
2014,06,24,06,05,14.10
2014,06,24,06,06,14.10
2014,06,24,06,07,14.10
2014,06,24,06,08,14.10
2014,06,24,06,09,14.10
2014,06,24,06,10,14.10
2014,06,24,06,11,14.10
2014,06,24,06,12,14.10
2014,06,24,06,13,14.10
2014,06,24,06,14,14.10
2014,06,24,06,15,14.10
2014,06,24,06,16,14.10
2014,06,24,06,17,14.10
2014,06,24,06,18,14.10
2014,06,24,06,19,14.10
2014,06,24,06,20,14.20
2014,06,24,06,21,14.20
2014,06,24,06,22,14.20
2014,06,24,06,23,14.20
2014,06,24,06,24,14.20
2014,06,24,06,25,14.20
2014,06,24,06,26,14.20
2014,06,24,06,27,14.20
2014,06,24,06,28,14.20
2014,06,24,06,29,14.30
2014,06,24,06,30,14.30
2014,06,24,06,31,14.30
2014,06,24,06,32,14.30
2014,06,24,06,33,14.30
2014,06,24,06,34,14.30
2014,06,24,06,35,14.30
2014,06,24,06,36,14.30
2014,06,24,06,37,14.30
2014,06,24,06,38,14.30
2014,06,24,06,39,14.40
2014,06,24,06,40,14.40
2014,06,24,06,41,14.40
2014,06,24,06,42,14.40
2014,06,24,06,43,14.40
2014,06,24,06,44,14.40
2014,06,24,06,45,14.50
2014,06,24,06,46,14.50
2014,06,24,06,47,14.50
2014,06,24,06,48,14.60
2014,06,24,06,49,14.60
2014,06,24,06,50,14.60
2014,06,24,06,51,14.60
2014,06,24,06,52,14.70
2014,06,24,06,53,14.70
2014,06,24,06,54,14.70
2014,06,24,06,55,14.70
2014,06,24,06,56,14.80
2014,06,24,06,57,14.80
2014,06,24,06,58,14.80
2014,06,24,06,59,14.80
2014,06,24,07,00,14.80
2014,06,24,07,01,14.80
2014,06,24,07,02,14.80
2014,06,24,07,03,14.90
2014,06,24,07,04,14.90
2014,06,24,07,05,14.90
2014,06,24,07,06,14.90
2014,06,24,07,07,14.90
2014,06,24,07,08,14.90
2014,06,24,07,09,15.00
2014,06,24,07,10,15.00
2014,06,24,07,11,15.00
2014,06,24,07,12,15.00
2014,06,24,07,13,15.10
2014,06,24,07,14,15.10
2014,06,24,07,15,15.10
2014,06,24,07,16,15.20
2014,06,24,07,17,15.20
2014,06,24,07,18,15.20
2014,06,24,07,19,15.20
2014,06,24,07,20,15.20
2014,06,24,07,21,15.20
2014,06,24,07,22,15.30
2014,06,24,07,23,15.30
2014,06,24,07,24,15.30
2014,06,24,07,25,15.30
2014,06,24,07,26,15.30
2014,06,24,07,27,15.30
2014,06,24,07,28,15.40
2014,06,24,07,29,15.40
2014,06,24,07,30,15.50
2014,06,24,07,31,15.50
2014,06,24,07,32,15.60
2014,06,24,07,33,15.60
2014,06,24,07,34,15.70
2014,06,24,07,35,15.70
2014,06,24,07,36,15.70
2014,06,24,07,37,15.70
2014,06,24,07,38,15.70
2014,06,24,07,39,15.80
2014,06,24,07,40,15.80
2014,06,24,07,41,15.80
2014,06,24,07,42,15.90
2014,06,24,07,43,15.90
2014,06,24,07,44,15.90
2014,06,24,07,45,16.00
2014,06,24,07,46,16.10
2014,06,24,07,47,16.10
2014,06,24,07,48,16.20
2014,06,24,07,49,16.30
2014,06,24,07,50,16.40
2014,06,24,07,51,16.40
2014,06,24,07,52,16.50
2014,06,24,07,53,16.50
2014,06,24,07,54,16.50
2014,06,24,07,55,16.60
2014,06,24,07,56,16.60
2014,06,24,07,57,16.60
2014,06,24,07,58,16.70
2014,06,24,07,59,16.70
2014,06,24,08,00,16.80
2014,06,24,08,01,16.90
2014,06,24,08,02,16.90
2014,06,24,08,03,16.90
2014,06,24,08,04,16.90
2014,06,24,08,05,16.90
2014,06,24,08,06,16.90
2014,06,24,08,07,16.90
2014,06,24,08,08,16.90
2014,06,24,08,09,16.90
2014,06,24,08,10,16.90
2014,06,24,08,11,16.90
2014,06,24,08,12,16.90
2014,06,24,08,13,17.00
2014,06,24,08,14,17.00
2014,06,24,08,15,17.10
2014,06,24,08,16,17.10
2014,06,24,08,17,17.10
2014,06,24,08,18,17.10
2014,06,24,08,19,17.10
2014,06,24,08,20,17.10
2014,06,24,08,21,17.10
2014,06,24,08,22,17.20
2014,06,24,08,23,17.20
2014,06,24,08,24,17.20
2014,06,24,08,25,17.20
2014,06,24,08,26,17.20
2014,06,24,08,27,17.20
2014,06,24,08,28,17.20
2014,06,24,08,29,17.10
2014,06,24,08,30,17.10
2014,06,24,08,31,17.10
2014,06,24,08,32,17.00
2014,06,24,08,33,17.00
2014,06,24,08,34,17.00
2014,06,24,08,35,16.90
2014,06,24,08,36,16.90
2014,06,24,08,37,16.80
2014,06,24,08,38,16.80
2014,06,24,08,39,16.80
2014,06,24,08,40,16.70
2014,06,24,08,41,16.80
2014,06,24,08,42,16.80
2014,06,24,08,43,16.80
2014,06,24,08,44,16.80
2014,06,24,08,45,16.80
2014,06,24,08,46,16.80
2014,06,24,08,47,16.80
2014,06,24,08,48,16.80
2014,06,24,08,49,16.90
2014,06,24,08,50,17.00
2014,06,24,08,51,17.00
2014,06,24,08,52,17.00
2014,06,24,08,53,16.90
2014,06,24,08,54,16.90
2014,06,24,08,55,16.90
2014,06,24,08,56,16.90
2014,06,24,08,57,16.90
2014,06,24,08,58,16.90
2014,06,24,08,59,16.90
2014,06,24,09,00,16.90
2014,06,24,09,01,16.80
2014,06,24,09,02,16.90
2014,06,24,09,03,16.90
2014,06,24,09,04,17.00
2014,06,24,09,05,17.10
2014,06,24,09,06,17.20
2014,06,24,09,07,17.20
2014,06,24,09,08,17.20
2014,06,24,09,09,17.10
2014,06,24,09,10,17.10
2014,06,24,09,11,17.00
2014,06,24,09,12,17.00
2014,06,24,09,13,17.00
2014,06,24,09,14,17.10
2014,06,24,09,15,17.20
2014,06,24,09,16,17.20
2014,06,24,09,17,17.30
2014,06,24,09,18,17.50
2014,06,24,09,19,17.60
2014,06,24,09,20,17.60
2014,06,24,09,21,17.60
2014,06,24,09,22,17.60
2014,06,24,09,23,17.60
2014,06,24,09,24,17.50
2014,06,24,09,25,17.40
2014,06,24,09,26,17.40
2014,06,24,09,27,17.30
2014,06,24,09,28,17.30
2014,06,24,09,29,17.20
2014,06,24,09,30,17.20
2014,06,24,09,31,17.20
2014,06,24,09,32,17.20
2014,06,24,09,33,17.20
2014,06,24,09,34,17.30
2014,06,24,09,35,17.40
2014,06,24,09,36,17.40
2014,06,24,09,37,17.50
2014,06,24,09,38,17.60
2014,06,24,09,39,17.60
2014,06,24,09,40,17.60
2014,06,24,09,41,17.60
2014,06,24,09,42,17.60
2014,06,24,09,43,17.60
2014,06,24,09,44,17.60
2014,06,24,09,45,17.50
2014,06,24,09,46,17.50
2014,06,24,09,47,17.40
2014,06,24,09,48,17.40
2014,06,24,09,49,17.50
2014,06,24,09,50,17.60
2014,06,24,09,51,17.60
2014,06,24,09,52,17.60
2014,06,24,09,53,17.70
2014,06,24,09,54,17.70
2014,06,24,09,55,17.70
2014,06,24,09,56,17.80
2014,06,24,09,57,17.80
2014,06,24,09,58,17.80
2014,06,24,09,59,17.80
2014,06,24,10,00,17.80
2014,06,24,10,01,17.80
2014,06,24,10,02,17.80
2014,06,24,10,03,17.80
2014,06,24,10,04,17.80
2014,06,24,10,05,17.80
2014,06,24,10,06,17.80
2014,06,24,10,07,17.80
2014,06,24,10,08,17.90
2014,06,24,10,09,17.90
2014,06,24,10,10,18.00
2014,06,24,10,11,18.10
2014,06,24,10,12,18.20
2014,06,24,10,13,18.30
2014,06,24,10,14,18.30
2014,06,24,10,15,18.50
2014,06,24,10,16,18.60
2014,06,24,10,17,18.70
2014,06,24,10,18,18.90
2014,06,24,10,19,18.90
2014,06,24,10,20,18.90
2014,06,24,10,21,18.90
2014,06,24,10,22,18.90
2014,06,24,10,23,18.80
2014,06,24,10,24,18.60
2014,06,24,10,25,18.40
2014,06,24,10,26,18.30
2014,06,24,10,27,18.30
2014,06,24,10,28,18.30
2014,06,24,10,29,18.20
2014,06,24,10,30,18.20
2014,06,24,10,31,18.30
2014,06,24,10,32,18.30
2014,06,24,10,33,18.30
2014,06,24,10,34,18.40
2014,06,24,10,35,18.40
2014,06,24,10,36,18.30
2014,06,24,10,37,18.20
2014,06,24,10,38,18.20
2014,06,24,10,39,18.10
2014,06,24,10,40,18.10
2014,06,24,10,41,18.10
2014,06,24,10,42,18.10
2014,06,24,10,43,18.10
2014,06,24,10,44,18.00
2014,06,24,10,45,18.00
2014,06,24,10,46,17.90
2014,06,24,10,47,17.90
2014,06,24,10,48,17.90
2014,06,24,10,49,17.90
2014,06,24,10,50,18.00
2014,06,24,10,51,18.10
2014,06,24,10,52,18.10
2014,06,24,10,53,18.10
2014,06,24,10,54,18.20
2014,06,24,10,55,18.20
2014,06,24,10,56,18.30
2014,06,24,10,57,18.30
2014,06,24,10,58,18.40
2014,06,24,10,59,18.60
2014,06,24,11,00,18.70
2014,06,24,11,01,18.80
2014,06,24,11,02,18.90
2014,06,24,11,03,19.00
2014,06,24,11,04,19.10
2014,06,24,11,05,19.10
2014,06,24,11,06,19.10
2014,06,24,11,07,19.20
2014,06,24,11,08,19.20
2014,06,24,11,09,19.20
2014,06,24,11,10,19.20
2014,06,24,11,11,19.10
2014,06,24,11,12,18.90
2014,06,24,11,13,18.80
2014,06,24,11,14,18.70
2014,06,24,11,15,18.60
2014,06,24,11,16,18.70
2014,06,24,11,17,18.70
2014,06,24,11,18,18.70
2014,06,24,11,19,18.70
2014,06,24,11,20,18.70
2014,06,24,11,21,18.70
2014,06,24,11,22,18.70
2014,06,24,11,23,18.70
2014,06,24,11,24,18.70
2014,06,24,11,25,18.70
2014,06,24,11,26,18.70
2014,06,24,11,27,18.70
2014,06,24,11,28,18.80
2014,06,24,11,29,18.80
2014,06,24,11,30,18.80
2014,06,24,11,31,18.70
2014,06,24,11,32,18.80
2014,06,24,11,33,18.80
2014,06,24,11,34,18.80
2014,06,24,11,35,18.70
2014,06,24,11,36,18.70
2014,06,24,11,37,18.70
2014,06,24,11,38,18.80
2014,06,24,11,39,18.70
2014,06,24,11,40,18.70
2014,06,24,11,41,18.60
2014,06,24,11,42,18.60
2014,06,24,11,43,18.60
2014,06,24,11,44,18.70
2014,06,24,11,45,18.70
2014,06,24,11,46,18.70
2014,06,24,11,47,18.80
2014,06,24,11,48,18.80
2014,06,24,11,49,18.80
2014,06,24,11,50,18.80
2014,06,24,11,51,18.70
2014,06,24,11,52,18.60
2014,06,24,11,53,18.60
2014,06,24,11,54,18.70
2014,06,24,11,55,18.80
2014,06,24,11,56,18.80
2014,06,24,11,57,18.80
2014,06,24,11,58,18.90
2014,06,24,11,59,18.80
2014,06,24,12,00,18.90
2014,06,24,12,01,18.90
2014,06,24,12,02,18.90
2014,06,24,12,03,18.90
2014,06,24,12,04,18.80
2014,06,24,12,05,18.60
2014,06,24,12,06,18.50
2014,06,24,12,07,18.50
2014,06,24,12,08,18.40
2014,06,24,12,09,18.40
2014,06,24,12,10,18.50
2014,06,24,12,11,18.60
2014,06,24,12,12,18.70
2014,06,24,12,13,18.80
2014,06,24,12,14,18.90
2014,06,24,12,15,18.90
2014,06,24,12,16,18.90
2014,06,24,12,17,18.90
2014,06,24,12,18,18.90
2014,06,24,12,19,19.00
2014,06,24,12,20,19.00
2014,06,24,12,21,19.10
2014,06,24,12,22,19.10
2014,06,24,12,23,19.00
2014,06,24,12,24,19.00
2014,06,24,12,25,19.00
2014,06,24,12,26,18.90
2014,06,24,12,27,18.80
2014,06,24,12,28,18.70
2014,06,24,12,29,18.60
2014,06,24,12,30,18.60
2014,06,24,12,31,18.60
2014,06,24,12,32,18.60
2014,06,24,12,33,18.50
2014,06,24,12,34,18.40
2014,06,24,12,35,18.40
2014,06,24,12,36,18.40
2014,06,24,12,37,18.40
2014,06,24,12,38,18.40
2014,06,24,12,39,18.40
2014,06,24,12,40,18.50
2014,06,24,12,41,18.50
2014,06,24,12,42,18.50
2014,06,24,12,43,18.60
2014,06,24,12,44,18.70
2014,06,24,12,45,18.80
2014,06,24,12,46,18.70
2014,06,24,12,47,18.70
2014,06,24,12,48,18.70
2014,06,24,12,49,18.70
2014,06,24,12,50,18.70
2014,06,24,12,51,18.70
2014,06,24,12,52,18.80
2014,06,24,12,53,18.80
2014,06,24,12,54,18.90
2014,06,24,12,55,18.90
2014,06,24,12,56,18.90
2014,06,24,12,57,18.90
2014,06,24,12,58,18.90
2014,06,24,12,59,19.00
2014,06,24,13,00,19.10
2014,06,24,13,01,19.10
2014,06,24,13,02,19.20
2014,06,24,13,03,19.20
2014,06,24,13,04,19.30
2014,06,24,13,05,19.30
2014,06,24,13,06,19.30
2014,06,24,13,07,19.40
2014,06,24,13,08,19.40
2014,06,24,13,09,19.50
2014,06,24,13,10,19.40
2014,06,24,13,11,19.50
2014,06,24,13,12,19.50
2014,06,24,13,13,19.60
2014,06,24,13,14,19.70
2014,06,24,13,15,19.80
2014,06,24,13,16,19.80
2014,06,24,13,17,19.80
2014,06,24,13,18,19.70
2014,06,24,13,19,19.60
2014,06,24,13,20,19.50
2014,06,24,13,21,19.40
2014,06,24,13,22,19.40
2014,06,24,13,23,19.40
2014,06,24,13,24,19.40
2014,06,24,13,25,19.40
2014,06,24,13,26,19.40
2014,06,24,13,27,19.50
2014,06,24,13,28,19.50
2014,06,24,13,29,19.40
2014,06,24,13,30,19.30
2014,06,24,13,31,19.30
2014,06,24,13,32,19.40
2014,06,24,13,33,19.40
2014,06,24,13,34,19.50
2014,06,24,13,35,19.50
2014,06,24,13,36,19.30
2014,06,24,13,37,19.20
2014,06,24,13,38,19.10
2014,06,24,13,39,19.00
2014,06,24,13,40,19.00
2014,06,24,13,41,19.10
2014,06,24,13,42,19.20
2014,06,24,13,43,19.30
2014,06,24,13,44,19.40
2014,06,24,13,45,19.40
2014,06,24,13,46,19.40
2014,06,24,13,47,19.40
2014,06,24,13,48,19.50
2014,06,24,13,49,19.60
2014,06,24,13,50,19.60
2014,06,24,13,51,19.60
2014,06,24,13,52,19.60
2014,06,24,13,53,19.70
2014,06,24,13,54,19.80
2014,06,24,13,55,19.80
2014,06,24,13,56,19.90
2014,06,24,13,57,20.00
2014,06,24,13,58,20.10
2014,06,24,13,59,20.10
2014,06,24,14,00,20.00
2014,06,24,14,01,20.10
2014,06,24,14,02,20.00
2014,06,24,14,03,19.90
2014,06,24,14,04,19.90
2014,06,24,14,05,19.90
2014,06,24,14,06,19.90
2014,06,24,14,07,19.90
2014,06,24,14,08,19.80
2014,06,24,14,09,19.70
2014,06,24,14,10,19.60
2014,06,24,14,11,19.60
2014,06,24,14,12,19.60
2014,06,24,14,13,19.60
2014,06,24,14,14,19.70
2014,06,24,14,15,19.80
2014,06,24,14,16,19.90
2014,06,24,14,17,19.90
2014,06,24,14,18,19.90
2014,06,24,14,19,19.80
2014,06,24,14,20,19.70
2014,06,24,14,21,19.60
2014,06,24,14,22,19.50
2014,06,24,14,23,19.50
2014,06,24,14,24,19.50
2014,06,24,14,25,19.50
2014,06,24,14,26,19.40
2014,06,24,14,27,19.40
2014,06,24,14,28,19.40
2014,06,24,14,29,19.40
2014,06,24,14,30,19.50
2014,06,24,14,31,19.70
2014,06,24,14,32,19.80
2014,06,24,14,33,19.80
2014,06,24,14,34,19.80
2014,06,24,14,35,19.70
2014,06,24,14,36,19.80
2014,06,24,14,37,19.80
2014,06,24,14,38,19.90
2014,06,24,14,39,20.00
2014,06,24,14,40,20.10
2014,06,24,14,41,20.20
2014,06,24,14,42,20.30
2014,06,24,14,43,20.30
2014,06,24,14,44,20.30
2014,06,24,14,45,20.30
2014,06,24,14,46,20.40
2014,06,24,14,47,20.40
2014,06,24,14,48,20.30
2014,06,24,14,49,20.30
2014,06,24,14,50,20.30
2014,06,24,14,51,20.30
2014,06,24,14,52,20.30
2014,06,24,14,53,20.40
2014,06,24,14,54,20.40
2014,06,24,14,55,20.40
2014,06,24,14,56,20.50
2014,06,24,14,57,20.60
2014,06,24,14,58,20.60
2014,06,24,14,59,20.60
2014,06,24,15,00,20.60
2014,06,24,15,01,20.60
2014,06,24,15,02,20.50
2014,06,24,15,03,20.40
2014,06,24,15,04,20.40
2014,06,24,15,05,20.40
2014,06,24,15,06,20.50
2014,06,24,15,07,20.70
2014,06,24,15,08,20.70
2014,06,24,15,09,20.70
2014,06,24,15,10,20.70
2014,06,24,15,11,20.70
2014,06,24,15,12,20.70
2014,06,24,15,13,20.70
2014,06,24,15,14,20.70
2014,06,24,15,15,20.70
2014,06,24,15,16,20.70
2014,06,24,15,17,20.90
2014,06,24,15,18,20.90
2014,06,24,15,19,21.00
2014,06,24,15,20,21.00
2014,06,24,15,21,21.00
2014,06,24,15,22,21.10
2014,06,24,15,23,21.00
2014,06,24,15,24,20.90
2014,06,24,15,25,20.90
2014,06,24,15,26,21.00
2014,06,24,15,27,21.00
2014,06,24,15,28,20.90
2014,06,24,15,29,20.90
2014,06,24,15,30,20.80
2014,06,24,15,31,20.80
2014,06,24,15,32,20.80
2014,06,24,15,33,20.80
2014,06,24,15,34,20.70
2014,06,24,15,35,20.60
2014,06,24,15,36,20.60
2014,06,24,15,37,20.60
2014,06,24,15,38,20.60
2014,06,24,15,39,20.60
2014,06,24,15,40,20.60
2014,06,24,15,41,20.60
2014,06,24,15,42,20.60
2014,06,24,15,43,20.60
2014,06,24,15,44,20.70
2014,06,24,15,45,20.70
2014,06,24,15,46,20.70
2014,06,24,15,47,20.70
2014,06,24,15,48,20.80
2014,06,24,15,49,21.00
2014,06,24,15,50,21.20
2014,06,24,15,51,21.20
2014,06,24,15,52,21.30
2014,06,24,15,53,21.30
2014,06,24,15,54,21.40
2014,06,24,15,55,21.50
2014,06,24,15,56,21.60
2014,06,24,15,57,21.50
2014,06,24,15,58,21.40
2014,06,24,15,59,21.40
2014,06,24,16,00,21.50
2014,06,24,16,01,21.60
2014,06,24,16,02,21.60
2014,06,24,16,03,21.70
2014,06,24,16,04,21.80
2014,06,24,16,05,21.80
2014,06,24,16,06,21.80
2014,06,24,16,07,21.60
2014,06,24,16,08,21.50
2014,06,24,16,09,21.30
2014,06,24,16,10,21.30
2014,06,24,16,11,21.30
2014,06,24,16,12,21.40
2014,06,24,16,13,21.60
2014,06,24,16,14,21.70
2014,06,24,16,15,21.70
2014,06,24,16,16,21.60
2014,06,24,16,17,21.50
2014,06,24,16,18,21.40
2014,06,24,16,19,21.40
2014,06,24,16,20,21.50
2014,06,24,16,21,21.50
2014,06,24,16,22,21.40
2014,06,24,16,23,21.40
2014,06,24,16,24,21.30
2014,06,24,16,25,21.30
2014,06,24,16,26,21.20
2014,06,24,16,27,21.20
2014,06,24,16,28,21.20
2014,06,24,16,29,21.20
2014,06,24,16,30,21.20
2014,06,24,16,31,21.30
2014,06,24,16,32,21.40
2014,06,24,16,33,21.50
2014,06,24,16,34,21.60
2014,06,24,16,35,21.60
2014,06,24,16,36,21.60
2014,06,24,16,37,21.60
2014,06,24,16,38,21.60
2014,06,24,16,39,21.50
2014,06,24,16,40,21.50
2014,06,24,16,41,21.50
2014,06,24,16,42,21.50
2014,06,24,16,43,21.40
2014,06,24,16,44,21.30
2014,06,24,16,45,21.20
2014,06,24,16,46,21.20
2014,06,24,16,47,21.20
2014,06,24,16,48,21.10
2014,06,24,16,49,21.20
2014,06,24,16,50,21.20
2014,06,24,16,51,21.30
2014,06,24,16,52,21.40
2014,06,24,16,53,21.40
2014,06,24,16,54,21.50
2014,06,24,16,55,21.70
2014,06,24,16,56,21.80
2014,06,24,16,57,21.90
2014,06,24,16,58,21.90
2014,06,24,16,59,22.00
2014,06,24,17,00,21.90
2014,06,24,17,01,21.90
2014,06,24,17,02,21.80
2014,06,24,17,03,21.70
2014,06,24,17,04,21.70
2014,06,24,17,05,21.60
2014,06,24,17,06,21.50
2014,06,24,17,07,21.50
2014,06,24,17,08,21.50
2014,06,24,17,09,21.60
2014,06,24,17,10,21.60
2014,06,24,17,11,21.50
2014,06,24,17,12,21.50
2014,06,24,17,13,21.50
2014,06,24,17,14,21.50
2014,06,24,17,15,21.60
2014,06,24,17,16,21.70
2014,06,24,17,17,21.70
2014,06,24,17,18,21.80
2014,06,24,17,19,21.90